Location: Betpouey
(42.8833°N, 0.0333°E)
Time: 08:02:03
(UTC+00:00)

H-2A R/B - Pass Details

Date: 01 December 2020
Orbit: 733 x 836 km, 98.2° (Epoch: 17 January)

Event Time Altitude Azimuth Distance (km) Brightness Sun altitude
Exits shadow 17:35:26 17° 69° (ENE) 1,911 3.4 -12.3°
Maximum altitude 17:35:59 17° 62° (ENE) 1,894 3.4 -12.4°
Drops below altitude 10° 17:39:14 10° 22° (NNE) 2,333 4.1 -13.0°
Sets 17:42:15 0° 3° (N) 3,244 5.0 -13.5°
